Regional Weather Roundup
Issued by NWS

Home | Current Version | Previous Version | Graphics & Text | Print | Product List | Glossary On
Versions: 1 2 3 4 5 6 7 8 9 10 11 12 13 14 15 16 17 18 19 20 21 22 23 24 25 26 27 28 29 30 31 32 33 34 35 36 37 38 39 40 41 42 43 44 45 46 47 48 49 50
781
ASUS44 KMEG 092100
RWRTN
TENNESSEE HOURLY STATE WEATHER ROUNDUP
NATIONAL WEATHER SERVICE MEMPHIS TN
300 PM CST TUE FEB 09 2016

TNZ002-004-019-021-049-052-054-088>092-092200-
WEST TENNESSEE

CITY           SKY/WX    TMP DP  RH WIND       PRES   REMARKS
MEMPHIS INTL   MOSUNNY   39  13  34 NW17G30   30.05R WCI  30
NWS MEMPHIS      N/A     38 N/A N/A MISG        N/A
JACKSON        CLOUDY    30  18  60 NW17G23   30.04R WCI  18
DYERSBURG      PTSUNNY   28  16  59 NW15G21   30.08R WCI  17
UNION CITY     CLOUDY    25  14  63 NW10      30.04R WCI  15
PARIS          CLOUDY    21  16  79 W8        30.01R WCI  12
$$

TNZ008-025-027-028-033-062-065-066-092200-
NORTH MIDDLE TENNESSEE

CITY           SKY/WX    TMP DP  RH WIND       PRES   REMARKS
NASHVILLE      LGT SNOW  25  17  72 W12       29.97R WCI  14
CLARKSVILLE    CLOUDY    24  15  68 NW15      29.98R WCI  11
COOKEVILLE     CLOUDY    27  19  74 NW9       29.86R WCI  17
CROSSVILLE     CLOUDY    24  15  68 W14G20    29.81R WCI  12
$$

TNZ061-075-076-078-094-096-097-092200-
SOUTH MIDDLE TENNESSEE

CITY           SKY/WX    TMP DP  RH WIND       PRES   REMARKS
TULLAHOMA      CLOUDY    25  19  80 W15       29.92R WCI  12
WINCHESTER     CLOUDY    27  18  69 NW9       29.93R WCI  17
MCMINNVILLE    PTSUNNY   25  19  80 W10       29.90R WCI  15
COLUMBIA       CLOUDY    27  21  80 NW7       29.96R WCI  19
SHELBYVILLE    CLOUDY    27  19  74 W14       29.95R WCI  15
$$

TNZ017-018-042-046-047-092200-
NORTHEAST TENNESSEE

CITY           SKY/WX    TMP DP  RH WIND       PRES   REMARKS
TRI CITIES     CLOUDY    24  13  62 W14G22    29.77R WCI  12
$$

TNZ012-013-036-069-073-074-092200-
CENTRAL EAST TENNESSEE

CITY           SKY/WX    TMP DP  RH WIND       PRES   REMARKS
KNOXVILLE      LGT SNOW  27  19  72 W9        29.84R WCI  18
OAK RIDGE      CLOUDY    30  14  51 W9G16     29.86R WCI  22
GATLINBURG     CLOUDY    27  16  63 W12       29.83R WCI  16
$$

TNZ083-085-099-092200-
SOUTHEAST TENNESSEE

CITY           SKY/WX    TMP DP  RH WIND       PRES   REMARKS
CHATTANOOGA    CLOUDY    31  21  66 W13G20    29.89R WCI  21
$$

SKY/WX REPORTED AS FAIR MEANS FEW OR NO CLOUDS BELOW
12 THOUSAND FEET.





USA.gov is the U.S. government's official web portal to all federal, state and local government web resources and services.